Location: Newark
(12.4436°N, 0.6167°W)
Time: 14:52:15
(UTC+00:00)

Vanguard 2 - Pass Details

Date: 12 December 2019
Orbit: 553 x 2938 km, 32.9° (Epoch: 25 January)

Event Time Altitude Azimuth Distance (km) Brightness Sun altitude
Rises 06:29:43 0° 304° (NW) 6,789 11.7 2.7°
Reaches altitude 10° 06:34:32 10° 308° (NW) 5,726 11.4 3.8°
Maximum altitude 06:51:27 60° 25° (NNE) 2,640 10.4 7.5°
Drops below altitude 10° 07:02:51 10° 102° (ESE) 4,026 13.3 10.0°
Sets 07:05:36 0° 107° (ESE) 4,736 13.5 10.6°
